Alamosa, CO

2:52 PM MDT on September 29, 2016 (GMT -0600)
San Luis Valley Regional / Bergman Field

Weather History for KALS - November, 2014

Change the Weather History Date:

Wednesday, November 19, 2014

  Actual Average Record
Temperature  
Mean Temperature 23 °F 28 °F  
Max Temperature 43 °F 45 °F 68 °F (2007)
Min Temperature 2 °F 11 °F -15 °F (1957)
Degree Days  
Heating Degree Days 42 37  
Month to date heating degree days 580 622  
Since 1 July heating degree days 1436 1732  
Cooling Degree Days 0 0  
Month to date cooling degree days 0 0  
Year to date cooling degree days 60 51  
Moisture  
Dew Point 7 °F    
Average Humidity 54    
Maximum Humidity 88    
Minimum Humidity 19    
Precipitation  
Precipitation 0.00 in 0.01 in 0.44 in (1979)
Month to date precipitation 0.32 0.29  
Year to date precipitation 5.31 6.83  
Snow  
Snow 0.00 in 0.20 in 6.50 in (1940)
Month to date snowfall 1.1 2.3  
Since 1 July snowfall 1.1 4.4  
Since 1 September snowfall 1.1 4.4  
Snow Depth 0.00 in    
Sea Level Pressure  
Sea Level Pressure 30.32 in    
Wind  
Wind Speed 4 mph (South)    
Max Wind Speed 8 mph    
Max Gust Speed 11 mph    
Visibility 9 miles    
Events      
T = Trace of Precipitation, MM = Missing Value Source: NWS Daily Summary

Daily Weather History Graph

Daily Weather History Graph

Search for Another Location

Airport or City:

Trip Planner

Search our weather history database for the weather conditions in past years. The results will help you decide how hot, cold, wet, or windy it might be!

Date:

Astronomy

Nov. 19, 2014 Rise Set
Actual Time 6:47 AM MST 4:50 PM MST
Civil Twilight 6:19 AM MST 5:18 PM MST
Nautical Twilight 5:47 AM MST 5:50 PM MST
Astronomical Twilight 5:16 AM MST 6:21 PM MST
Moon 3:49 AM MST (11/19) 3:16 PM MST (11/19)
Length of Visible Light 10h 59m
Length of Day
10h 03m
Waning Crescent, 8% of the Moon is Illuminated
Nov 19
Waning Crescent
Nov 22
New
Nov 29
First Quarter
Dec 6
Full
Dec 14
Last Quarter

Hourly Weather History & Observations

Time (MST) Temp. Windchill Dew Point Humidity Pressure Visibility Wind Dir Wind Speed Gust Speed Precip Events Conditions
12:52 AM 8.1 °F -0.5 °F 3.9 °F 83% 30.35 in 10.0 mi SE 4.6 mph - N/A   Clear
1:52 AM 7.0 °F 0.1 °F 3.0 °F 84% 30.37 in 10.0 mi WSW 3.5 mph - N/A   Clear
2:52 AM 5.0 °F -4.1 °F -0.0 °F 80% 30.37 in 10.0 mi SW 4.6 mph - N/A   Clear
3:52 AM 3.9 °F -3.4 °F -2.0 °F 76% 30.38 in 10.0 mi South 3.5 mph - N/A   Clear
4:52 AM 1.9 °F -7.6 °F -2.0 °F 83% 30.42 in 10.0 mi East 4.6 mph - N/A   Clear
5:52 AM 3.9 °F -5.3 °F -0.0 °F 84% 30.45 in 10.0 mi ESE 4.6 mph - N/A   Clear
6:52 AM 5.0 °F - -0.0 °F 80% 30.48 in 10.0 mi Calm Calm - N/A   Clear
7:52 AM 12.0 °F 5.9 °F 7.0 °F 80% 30.48 in 10.0 mi South 3.5 mph - N/A   Clear
8:52 AM 21.0 °F - 10.9 °F 65% 30.46 in 10.0 mi Calm Calm - N/A   Clear
9:52 AM 28.0 °F - 12.9 °F 53% 30.40 in 10.0 mi Calm Calm - N/A   Clear
10:52 AM 34.0 °F 31.0 °F 12.0 °F 40% 30.36 in 10.0 mi Variable 3.5 mph - N/A   Clear
11:52 AM 37.9 °F - 10.0 °F 32% 30.28 in 9.0 mi Calm Calm - N/A   Clear
12:52 PM 41.0 °F 38.0 °F 8.1 °F 26% 30.25 in 0.2 mi Variable 4.6 mph - N/A   Haze
12:57 PM 41.0 °F 39.0 °F 7.0 °F 25% 30.17 in 4.0 mi Variable 3.5 mph - N/A   Haze
1:52 PM 42.1 °F 37.7 °F 7.0 °F 24% 30.22 in - SE 6.9 mph - N/A   Clear
2:52 PM 42.1 °F 39.2 °F 3.9 °F 21% 30.22 in 10.0 mi East 4.6 mph - N/A   Clear
3:52 PM 39.0 °F 34.8 °F 10.0 °F 30% 30.24 in 10.0 mi South 5.8 mph - N/A   Clear
4:52 PM 35.1 °F 32.2 °F 10.9 °F 37% 30.27 in 10.0 mi SSW 3.5 mph - N/A   Clear
5:52 PM 28.9 °F 21.9 °F 10.9 °F 47% 30.30 in 10.0 mi SW 6.9 mph - N/A   Clear
6:52 PM 21.0 °F 16.2 °F 10.9 °F 65% 30.35 in 10.0 mi WSW 3.5 mph - N/A   Clear
7:52 PM 17.1 °F - 10.0 °F 74% 30.33 in 10.0 mi Calm Calm - N/A   Clear
8:52 PM 15.1 °F 6.4 °F 9.0 °F 77% 30.29 in 10.0 mi SSW 5.8 mph - N/A   Clear
9:52 PM 12.9 °F 3.8 °F 8.1 °F 81% 30.27 in 10.0 mi SSW 5.8 mph - N/A   Clear
10:52 PM 16.0 °F 7.4 °F 10.0 °F 77% 30.23 in 10.0 mi West 5.8 mph - N/A   Clear
11:52 PM 15.1 °F 7.7 °F 9.0 °F 77% 30.20 in 10.0 mi NNW 4.6 mph - N/A   Clear